Overview Statistics Trail Chart Weather Telemetry Raw packets
 

This is the latest recevied weather packets stored in our database for station/object DL6DJ-15. If no packets are shown the sender has not sent any weather packets the latest 10 day(s).

<< 8 9 10 11 12 13 14 >>
Time Temp. Humidity Pressure Rain* Wind** Luminosity Snow
1788551599 23.33° C 49% 1015.8 hPa - - - -
1788551324 23.33° C 50% 1015.7 hPa - - - -
1788550997 23.33° C 50% 1015.8 hPa - - - -
1788550697 23.33° C 52% 1015.7 hPa - - - -
1788550397 22.78° C 52% 1015.7 hPa - - - -
1788550096 22.78° C 53% 1015.7 hPa - - - -
1788549796 22.78° C 53% 1015.6 hPa - - - -
1788549496 22.22° C 54% 1015.7 hPa - - - -
1788549195 22.22° C 55% 1015.7 hPa - - - -
1788548895 22.22° C 54% 1015.6 hPa - - - -
1788548594 22.78° C 54% 1015.7 hPa - - - -
1788548294 22.78° C 54% 1015.6 hPa - - - -
1788547993 22.78° C 53% 1015.6 hPa - - - -
1788547693 22.78° C 52% 1015.6 hPa - - - -
1788547393 23.33° C 52% 1015.5 hPa - - - -
1788547092 23.33° C 51% 1015.6 hPa - - - -
1788546792 23.89° C 50% 1015.4 hPa - - - -
1788546491 23.89° C 49% 1015.4 hPa - - - -
1788546191 24.44° C 47% 1015.3 hPa - - - -
1788545891 24.44° C 46% 1015.3 hPa - - - -
1788545590 25° C 44% 1015.3 hPa - - - -
1788545290 25.56° C 42% 1015.2 hPa - - - -
1788544989 26.11° C 40% 1015.1 hPa - - - -
1788544689 26.11° C 39% 1015 hPa - - - -
1788544388 26.11° C 39% 1015 hPa - - - -

* Rain since midnight (hover to see other rain measurements)
** Current wind speed in m/s (hover to see current wind gust speed)